{"data":{"norad_id":46506,"epoch":"2026-05-24T23:36:28.301760Z","epoch_age_seconds":80420,"freshness":"FRESH","line1":"1 46506U 20068W   26144.98366090  .00011656  00000+0  35667-3 0  9993","line2":"2 46506  97.8751 144.2224 0006943  92.3702 267.8334 15.33992594311743","mean_motion":15.33992594,"eccentricity":0.0006943,"inclination_deg":97.8751,"raan_deg":144.2224,"arg_perigee_deg":92.3702,"mean_anomaly_deg":267.8334,"bstar":0.00035667,"rev_number":31174,"period_min":93.87268267346,"perigee_km":459.16396839485,"apogee_km":468.66484097539,"semimajor_km":6842.0514046851,"source":"CELESTRAK","updated_at":"2026-05-25T13:38:25.531515Z"}}